Regional Weather Roundup
Issued by NWS

Home | Current Version | Previous Version | Text Only | Print | Product List | Glossary On
Versions: 1 2 3 4 5 6 7 8 9 10 11 12 13 14 15 16 17 18 19 20 21 22 23 24 25 26 27 28 29 30 31 32 33 34 35 36 37 38 39 40 41 42 43 44 45 46 47 48 49 50
769
ASUS44 KLIX 262101
RWRLA
LOUISIANA WEATHER ROUNDUP
NATIONAL WEATHER SERVICE NEW ORLEANS LA
300 PM CST MON JAN 26 2015

NOTE: "FAIR" INDICATES FEW OR NO CLOUDS BELOW 12,000 FEET WITH NO
      SIGNIFICANT WEATHER AND/OR OBSTRUCTIONS TO VISIBILITY.
      SKY/WX - SKY CONDITION AND SIGNIFICANT WEATHER.
      TMP - AIR TEMPERATURE.    DP   - DEWPOINT TEMPERATURE.
      RH  - RELATIVE HUMIDITY.  PRES - PRESSURE.
      HX  - HEAT INDEX.         WCI  - WIND CHILL INDEX.

*  THESE STATIONS ARE NOT NWS OR FAA STATIONS AND ARE NOT UNDER
   NWS QUALITY CONTROL.

LAZ040-048-061>063-065-066-069-262200-
SOUTHEAST LOUISIANA

CITY           SKY/WX    TMP DP  RH WIND       PRES   REMARKS
N.O. AUDUBON     N/A     60  40  47 MISG        N/A
N.O. INTL ARPT MOSUNNY   61  34  36 NW13      30.06F
N.O. LAKEFRONT SUNNY     57  44  62 W10       30.06S
N.O. DOWNTOWN* FAIR      61  34  36 W6        30.06S
SLIDELL        SUNNY     65  32  29 N12       30.03F
BATON ROUGE    SUNNY     62  30  29 NW7       30.07S
BOOTHVILLE     SUNNY     58  38  47 NW12      30.06F
BELLE CHASSE   MOSUNNY   61  32  33 VRB7G16   30.05F
BOGALUSA*        N/A     62  31  31 N13       30.05F
GALLIANO*      NOT AVBL
NEW ROADS*     NOT AVBL
GONZALES*      NOT AVBL
HAMMOND*       NOT AVBL
HOUMA*         SUNNY     63  37  39 NW8       30.06F
PORT FOURCHON* CLEAR     55  43  62 W15G21    30.11S

$$

LAZ041-044-053-054-262200-
SOUTHWEST LOUISIANA

CITY           SKY/WX    TMP DP  RH WIND       PRES   REMARKS
LAKE CHARLES   SUNNY     65  34  31 NW9       30.12F
LAFAYETTE      SUNNY     61  36  39 NW10      30.10F
PATTERSON      SUNNY     61  36  39 NW10      30.10S
SALT POINT       N/A     56  44  64 W10       30.09F
NEW IBERIA       N/A     62  36  37 NW12      30.11S
CHENAULT AIRPK SUNNY     64  32  29 NW10      30.12F

$$

LAZ027-028-262200-
CENTRAL LOUISIANA

CITY           SKY/WX    TMP DP  RH WIND       PRES   REMARKS
FORT POLK      SUNNY     62  37  39 W14       30.10S
ALEXANDRIA INT SUNNY     61  35  37 NW7       30.08F
ALEXANDRIA     SUNNY     63  33  32 N6        30.09S

$$

LAZ001-002-262200-
NORTHWEST LOUISIANA

CITY           SKY/WX    TMP DP  RH WIND       PRES   REMARKS
SHREVEPORT     SUNNY     64  33  31 SW8       30.07F
BARKSDALE AFB  SUNNY     62  33  33 W5        30.08F
DTN SHREVEPORT SUNNY     61  32  33 SW10      30.08F

$$

LAZ014-016-262200-
NORTHEAST LOUISIANA

CITY           SKY/WX    TMP DP  RH WIND       PRES   REMARKS
MONROE         SUNNY     59  33  37 NW8       30.08F
TALLULAH       SUNNY     55  36  48 NW6       30.09F

$$




USA.gov is the U.S. government's official web portal to all federal, state and local government web resources and services.